Tracking 25656 objects as of 22-May-2022
HD Live streaming from Space Station
objects crossing your sky now

INTASAT

Track INTASAT now!
10-day predictions
INTASAT is classified as:


NORAD ID: 7531
Int'l Code: 1974-089C
Perigee: 1,447.9 km
Apogee: 1,466.3 km
Inclination: 101.9 °
Period: 114.9 minutes
Semi major axis: 7828 km
RCS: 0.5293 m2 (medium)
Launch date: November 15, 1974
Source: Spain (SPN)
Launch site: AIR FORCE WESTERN TEST RANGE (AFWTR)
aabbcc
Your satellite tracking list
Your tracking list is empty




NASA's NSSDC Master Catalog

Two Line Element Set (TLE):
1 07531U 74089C   22141.89413792 -.00000023  00000-0  14444-3 0  9993
2 07531 101.9012 121.2588 0011800 102.0995 313.3502 12.53479927173923
Source of the keplerian elements: AFSPC